Simultaneous Nadir Overpasses (SNOs) Predictions

Prediction of SNOs between NOAA-19 and TERRA Satellite Orbit:

Table of predicted SNOs for the next 14.0 days since TLE Epoch: 10/7/2023
Index Date (NOAA-19) Time (NOAA-19) Lat,Lon (NOAA-19) SZA (NOAA-19 ) Date (TERRA) Time (TERRA) Lat,Lon (TERRA) SZA (TERRA ) Distance(km) Time Diff (sec)
1 10/07/2023 06:33:11 -80.76, -68.06 92.36 10/07/2023 06:34:11 -80.76, -68.10 92.34 0.74 60
2 10/07/2023 07:24:07 80.78, 99.86 87.73 10/07/2023 07:23:32 80.77, 99.71 87.70 2.64 35
3 10/09/2023 10:23:32 80.75, 54.16 88.45 10/09/2023 10:24:15 80.74, 54.17 88.46 0.85 43
4 10/09/2023 11:14:30 -80.78,-137.70 91.44 10/09/2023 11:13:36 -80.79,-137.63 91.44 1.92 54
5 10/11/2023 14:13:54 -80.75, 176.70 90.71 10/11/2023 14:14:19 -80.75, 176.66 90.71 0.96 25
6 10/11/2023 15:04:51 80.78, -15.38 89.38 10/11/2023 15:03:39 80.78, -15.28 89.37 1.83 72
7 10/13/2023 18:04:15 80.75, -60.87 90.11 10/13/2023 18:04:21 80.74, -60.91 90.10 1.30 6
8 10/15/2023 21:54:36 -80.75, 61.49 89.09 10/15/2023 21:54:24 -80.74, 61.56 89.09 1.46 12
9 10/18/2023 00:53:58 -80.74, 16.37 88.34 10/18/2023 00:55:04 -80.73, 16.22 88.34 2.83 66
10 10/18/2023 01:44:57 80.75,-175.87 91.74 10/18/2023 01:44:24 80.75,-175.85 91.73 0.27 33
11 10/20/2023 04:44:21 80.72, 138.40 92.41 10/20/2023 04:45:04 80.72, 138.56 92.43 2.83 43



Historial Predications of SNOs between NOAA-19 and TERRA
